CZ-6A DEB, 54267

Orbit data source: Space-Track

CZ-6A DEB, 54267 is space debris in SSO originally from a launch on Fri, 11 Nov 2022 UTC launched from the Taiyaun Space Center, China (TSC). Debris objects in space refer to the collection of defunct objects orbiting the Earth. Examples of debris include non-operational satellites, rocket bodies, and fragments generated from explosions, collisions, or faulty payload assembly.

Loading next visibility...
Identifier
54267, 2022-151J
Orbit
SSO
Country
Flag of CNCN / PRC
Related business
Manufacturer
SAST
Mission
Spacecraft
Bus & Motor
Unknown
Mass
Unknown
Launch date (UTC)
2022-11-11 (4 years ago)
Launch vehicle
Unknown
Launch site
Taiyaun Space Center, China (TSC)
Object type
Payload
Rocket body
Debris
Shape & HBR
Unknown shape, 0.2 m
Radar Cross Section
Medium (>0.1 m² and <1 m²)

Expand to show TLE details & history
Last TLE update: 1 day ago

TLE from 1 day ago
0 CZ-6A DEB
1 54267U 22151J   26206.17283671  .00002749  00000-0  72957-3 0  9991
2 54267  98.7994 283.6806 0088243 160.2939 200.1697 14.47233051194694
Epoch: 2026-07-25T04:08Z
TLE epoch observation values (Epoch: 2026-07-25T04:08:53.091Z)
Latitude
-0.00007°
Longitude
-81.42953°
Altitude
796.643 km
Speed
7.424 km/s
True Right ascension
18h 54m 43s
True Declination
0° 00' 00"
Sunlit
Object was in full shadow at epoch
Visualization orbit readout
Latitude
Unknown
Longitude
Unknown
Altitude
Unknown
Speed
Unknown
Apparent Right ascension
Unknown
Apparent Declination
Unknown
Sunlit
N/A
Visualization observer readout
Local Sidereal Time
23:03:41
Azimuth
Unknown
Elevation
Unknown
Doppler factor
Unknown
Orbital elements
Apogee altitude
794.567 km
Perigee altitude
669.086 km
Semi-major axis
7,109.963 km
Eccentricity
0.00882
Inclination
98.7994°
RAAN
283.6806°
Arg. of periapsis
160.2939°
True anomaly
199.82462°
Mean anomaly
200.1697°
Eccentric anomaly
199.9968°
Mean motion
3.62028 °/min
Orbital period
99.44 mins
BSTAR
0.00072957
Loading maneuver chart data...
Computing Atmospheric mass density...

Documentation

Showing up to 5 results
|